| time (UTC) | temp F | wind direction | speed MPH | gust MPH | rain 1hr in | rain 24hr in | rain mn in | humidity % | barometer mb |
| 20260831015604 | 61 | 203 | 2.0 | 5.0 | 0.00 | 0.06 | 0.06 | 90 | 1008.3 |
| 20260831015101 | 62 | 199 | 3.0 | 7.0 | 0.00 | 0.06 | 0.06 | 90 | 1008.4 |
| 20260831015056 | 61 | 189 | 2.0 | 5.0 | 0.00 | 0.06 | 0.06 | 90 | 1008.3 |
| 20260831014550 | 62 | 165 | 3.0 | 5.0 | 0.00 | 0.06 | 0.06 | 90 | 1008.3 |
| 20260831014243 | 62 | 191 | 4.0 | 11.0 | 0.00 | 0.06 | 0.06 | 90 | 1008.4 |
| 20260831013125 | 62 | 193 | 5.0 | 11.0 | 0.00 | 0.06 | 0.06 | 90 | 1008.5 |
| 20260831012622 | 62 | 214 | 4.0 | 10.0 | 0.00 | 0.06 | 0.06 | 91 | 1008.5 |
| 20260831012618 | 62 | 237 | 5.0 | 10.0 | 0.00 | 0.06 | 0.06 | 91 | 1008.5 |
| 20260831011603 | 62 | 185 | 3.0 | 11.0 | 0.00 | 0.06 | 0.06 | 91 | 1008.6 |
| 20260831011056 | 62 | 156 | 2.0 | 11.0 | 0.00 | 0.06 | 0.06 | 92 | 1008.5 |
| 20260831010526 | 62 | 203 | 1.0 | 4.0 | 0.01 | 0.06 | 0.06 | 91 | 1008.4 |
| 20260831010325 | 62 | 185 | 0.0 | 2.0 | 0.01 | 0.06 | 0.06 | 91 | 1008.4 |
| 20260831005536 | 62 | 160 | 1.0 | 3.0 | 0.02 | 0.06 | 0.06 | 91 | 1008.4 |
| 20260831005029 | 62 | 160 | 1.0 | 3.0 | 0.02 | 0.06 | 0.06 | 91 | 1008.3 |
| 20260831004524 | 62 | 176 | 1.0 | 3.0 | 0.06 | 0.06 | 0.06 | 91 | 1008.3 |
| 20260831004119 | 62 | 151 | 1.0 | 5.0 | 0.06 | 0.06 | 0.06 | 91 | 1008.4 |
| 20260831004113 | 62 | 171 | 1.0 | 5.0 | 0.06 | 0.06 | 0.06 | 91 | 1008.4 |
| 20260831003056 | 62 | 172 | 1.0 | 5.0 | 0.06 | 0.06 | 0.06 | 91 | 1008.4 |
| 20260831002552 | 62 | 137 | 2.0 | 5.0 | 0.06 | 0.06 | 0.06 | 91 | 1008.4 |
| 20260831002040 | 62 | 143 | 2.0 | 3.0 | 0.06 | 0.06 | 0.06 | 90 | 1008.5 |
| 20260831001533 | 63 | 168 | 2.0 | 5.0 | 0.06 | 0.06 | 0.06 | 90 | 1008.5 |
| 20260831001024 | 63 | 190 | 2.0 | 5.0 | 0.06 | 0.06 | 0.06 | 90 | 1008.5 |
| 20260831000517 | 63 | 176 | 3.0 | 6.0 | 0.06 | 0.06 | 0.06 | 89 | 1008.6 |
| 20260831000012 | 63 | 194 | 4.0 | 8.0 | 0.06 | 0.06 | 0.06 | 89 | 1008.8 |
| 20260830235603 | 64 | 205 | 1.0 | 4.0 | 0.00 | 0.00 | 0.00 | 87 | 1009.1 |
| 20260830235557 | 64 | 181 | 2.0 | 9.0 | 0.04 | 0.04 | 0.05 | 87 | 1009.1 |
| 20260830235553 | 63 | 187 | 4.0 | 9.0 | 0.05 | 0.05 | 0.05 | 88 | 1008.9 |
| 20260830234032 | 64 | 189 | 2.0 | 4.0 | 0.00 | 0.00 | 0.00 | 86 | 1008.9 |
| 20260830233522 | 63 | 164 | 2.0 | 4.0 | 0.00 | 0.00 | 0.00 | 86 | 1008.8 |
| 20260830233011 | 64 | 151 | 1.0 | 4.0 | 0.00 | 0.00 | 0.00 | 86 | 1008.9 |
| 20260830232508 | 64 | 174 | 0.0 | 4.0 | 0.00 | 0.00 | 0.00 | 86 | 1008.9 |
| 20260830232504 | 64 | 190 | 0.0 | 4.0 | 0.00 | 0.00 | 0.00 | 85 | 1008.9 |
| 20260830231557 | 64 | 174 | 0.0 | 2.0 | 0.00 | 0.00 | 0.00 | 85 | 1008.9 |
| 20260830231053 | 64 | 174 | 0.0 | 2.0 | 0.00 | 0.00 | 0.00 | 85 | 1009.0 |
| 20260830230948 | 64 | 174 | 1.0 | 2.0 | 0.00 | 0.00 | 0.00 | 85 | 1008.9 |
| 20260830230247 | 64 | 152 | 0.0 | 3.0 | 0.00 | 0.00 | 0.00 | 85 | 1009.0 |
| 20260830230048 | 64 | 174 | 0.0 | 3.0 | 0.00 | 0.00 | 0.00 | 85 | 1008.9 |
| 20260830225026 | 64 | 170 | 0.0 | 3.0 | 0.00 | 0.00 | 0.00 | 84 | 1009.0 |
| 20260830224525 | 64 | 142 | 0.0 | 0.0 | 0.00 | 0.00 | 0.00 | 84 | 1009.0 |
| 20260830224520 | 64 | 170 | 0.0 | 3.0 | 0.00 | 0.00 | 0.00 | 84 | 1008.9 |
| 20260830223503 | 64 | 142 | 0.0 | 0.0 | 0.00 | 0.00 | 0.00 | 84 | 1008.9 |
| 20260830222958 | 64 | 192 | 1.0 | 3.0 | 0.00 | 0.00 | 0.00 | 84 | 1009.1 |
| 20260830222952 | 64 | 142 | 0.0 | 0.0 | 0.00 | 0.00 | 0.00 | 84 | 1009.0 |
| 20260830221946 | 64 | 162 | 1.0 | 3.0 | 0.00 | 0.00 | 0.00 | 84 | 1009.2 |
| 20260830221534 | 65 | 190 | 1.0 | 3.0 | 0.00 | 0.00 | 0.00 | 84 | 1009.2 |
| 20260830221530 | 65 | 170 | 1.0 | 3.0 | 0.00 | 0.00 | 0.00 | 84 | 1009.2 |
| 20260830221224 | 65 | 190 | 0.0 | 3.0 | 0.00 | 0.00 | 0.00 | 84 | 1009.3 |
| 20260830220720 | 65 | 154 | 0.0 | 0.0 | 0.00 | 0.00 | 0.00 | 83 | 1009.2 |
| 20260830215502 | 65 | 172 | 0.0 | 2.0 | 0.00 | 0.00 | 0.00 | 83 | 1009.2 |
| 20260830214954 | 65 | 182 | 0.0 | 2.0 | 0.00 | 0.00 | 0.00 | 83 | 1009.2 |
| 20260830214454 | 65 | 154 | 0.0 | 0.0 | 0.00 | 0.01 | 0.00 | 83 | 1009.3 |
| 20260830214448 | 65 | 154 | 0.0 | 0.0 | 0.00 | 0.00 | 0.00 | 83 | 1009.3 |
| 20260830214146 | 65 | 154 | 0.0 | 0.0 | 0.00 | 0.01 | 0.00 | 83 | 1009.3 |
| 20260830212935 | 65 | 154 | 0.0 | 0.0 | 0.00 | 0.01 | 0.00 | 82 | 1009.3 |
| 20260830212931 | 65 | 154 | 0.0 | 0.0 | 0.00 | 0.01 | 0.00 | 82 | 1009.3 |
| 20260830212024 | 65 | 154 | 0.0 | 0.0 | 0.00 | 0.01 | 0.00 | 82 | 1009.3 |
| 20260830211507 | 65 | 154 | 0.0 | 0.0 | 0.00 | 0.01 | 0.00 | 82 | 1009.4 |
| 20260830211006 | 65 | 154 | 0.0 | 0.0 | 0.00 | 0.01 | 0.00 | 82 | 1009.4 |
| 20260830211001 | 65 | 154 | 0.0 | 0.0 | 0.00 | 0.01 | 0.00 | 82 | 1009.4 |
| 20260830205945 | 65 | 154 | 0.0 | 0.0 | 0.00 | 0.01 | 0.00 | 82 | 1009.5 |
| 20260830205453 | 65 | 171 | 0.0 | 0.0 | 0.00 | 0.01 | 0.00 | 82 | 1009.5 |
| 20260830204936 | 66 | 155 | 0.0 | 0.0 | 0.00 | 0.01 | 0.00 | 82 | 1009.5 |
| 20260830204432 | 66 | 155 | 0.0 | 0.0 | 0.00 | 0.01 | 0.00 | 81 | 1009.6 |
| 20260830204428 | 66 | 155 | 0.0 | 0.0 | 0.00 | 0.01 | 0.00 | 81 | 1009.6 |
| 20260830203427 | 66 | 171 | 0.0 | 0.0 | 0.00 | 0.01 | 0.00 | 81 | 1009.7 |
| 20260830202912 | 66 | 171 | 0.0 | 0.0 | 0.00 | 0.01 | 0.00 | 81 | 1009.7 |
| 20260830202506 | 66 | 171 | 0.0 | 0.0 | 0.00 | 0.01 | 0.00 | 81 | 1009.6 |
| 20260830201949 | 66 | 171 | 0.0 | 0.0 | 0.00 | 0.01 | 0.00 | 81 | 1009.7 |
| 20260830201443 | 66 | 194 | 0.0 | 0.0 | 0.00 | 0.01 | 0.00 | 81 | 1009.7 |
| 20260830200937 | 66 | 203 | 0.0 | 0.0 | 0.00 | 0.01 | 0.00 | 81 | 1009.8 |
| 20260830200432 | 67 | 195 | 1.0 | 3.0 | 0.00 | 0.01 | 0.00 | 80 | 1009.8 |
| 20260830200427 | 67 | 195 | 0.0 | 3.0 | 0.00 | 0.01 | 0.00 | 80 | 1009.8 |
| 20260830200123 | 67 | 195 | 2.0 | 5.0 | 0.00 | 0.01 | 0.00 | 80 | 1009.9 |
| 20260830194908 | 67 | 206 | 3.0 | 5.0 | 0.00 | 0.01 | 0.00 | 80 | 1009.9 |
| 20260830194417 | 67 | 177 | 3.0 | 7.0 | 0.00 | 0.01 | 0.00 | 80 | 1009.9 |
| 20260830193902 | 67 | 220 | 3.0 | 7.0 | 0.00 | 0.01 | 0.00 | 79 | 1010.0 |
| 20260830193450 | 67 | 199 | 4.0 | 8.0 | 0.00 | 0.01 | 0.00 | 79 | 1010.1 |
| 20260830192946 | 67 | 194 | 3.0 | 8.0 | 0.00 | 0.01 | 0.00 | 79 | 1010.2 |
| 20260830192423 | 67 | 192 | 2.0 | 7.0 | 0.00 | 0.01 | 0.00 | 79 | 1010.2 |
| 20260830191928 | 67 | 187 | 1.0 | 5.0 | 0.00 | 0.01 | 0.00 | 78 | 1010.1 |
| 20260830191407 | 67 | 158 | 0.0 | 0.0 | 0.00 | 0.01 | 0.00 | 78 | 1010.1 |
| 20260830190857 | 67 | 151 | 0.0 | 0.0 | 0.00 | 0.01 | 0.00 | 77 | 1010.0 |
| 20260830190355 | 67 | 150 | 0.0 | 0.0 | 0.00 | 0.01 | 0.00 | 77 | 1010.0 |
| 20260830190125 | 67 | 150 | 0.0 | 0.0 | 0.00 | 0.01 | 0.00 | 77 | 1010.0 |
| 20260830185448 | 68 | 150 | 0.0 | 0.0 | 0.00 | 0.01 | 0.00 | 77 | 1010.0 |
| 20260830184938 | 68 | 150 | 0.0 | 0.0 | 0.00 | 0.01 | 0.00 | 76 | 1010.0 |
| 20260830184432 | 68 | 155 | 0.0 | 0.0 | 0.00 | 0.01 | 0.00 | 76 | 1009.9 |
| 20260830183919 | 68 | 180 | 0.0 | 0.0 | 0.00 | 0.01 | 0.00 | 76 | 1010.0 |
| 20260830183411 | 68 | 180 | 0.0 | 0.0 | 0.00 | 0.01 | 0.00 | 75 | 1009.9 |
| 20260830182908 | 68 | 180 | 0.0 | 0.0 | 0.00 | 0.01 | 0.00 | 75 | 1010.1 |
| 20260830182902 | 68 | 180 | 0.0 | 0.0 | 0.00 | 0.01 | 0.00 | 75 | 1010.1 |
| 20260830181847 | 69 | 185 | 0.0 | 0.0 | 0.00 | 0.01 | 0.00 | 74 | 1010.1 |
| 20260830181343 | 69 | 163 | 1.0 | 3.0 | 0.00 | 0.01 | 0.00 | 74 | 1010.1 |
| 20260830180836 | 69 | 203 | 1.0 | 4.0 | 0.00 | 0.01 | 0.00 | 74 | 1010.1 |
| 20260830180338 | 69 | 168 | 1.0 | 4.0 | 0.00 | 0.01 | 0.00 | 74 | 1010.1 |
| 20260830175930 | 69 | 191 | 1.0 | 3.0 | 0.00 | 0.01 | 0.00 | 73 | 1010.1 |
| 20260830175424 | 69 | 184 | 1.0 | 3.0 | 0.00 | 0.01 | 0.00 | 73 | 1010.1 |
| 20260830174906 | 70 | 184 | 2.0 | 4.0 | 0.00 | 0.01 | 0.00 | 72 | 1010.2 |
| 20260830174358 | 70 | 207 | 2.0 | 5.0 | 0.00 | 0.01 | 0.00 | 72 | 1010.3 |
| 20260830173854 | 70 | 203 | 3.0 | 6.0 | 0.00 | 0.01 | 0.00 | 72 | 1010.2 |
| 20260830173344 | 70 | 174 | 3.0 | 7.0 | 0.00 | 0.01 | 0.00 | 71 | 1010.2 |
| 20260830172836 | 70 | 213 | 4.0 | 8.0 | 0.00 | 0.01 | 0.00 | 71 | 1010.3 |
| 20260830172335 | 71 | 164 | 4.0 | 8.0 | 0.00 | 0.01 | 0.00 | 71 | 1010.3 |
| 20260830171928 | 71 | 187 | 5.0 | 8.0 | 0.00 | 0.01 | 0.00 | 70 | 1010.4 |
| 20260830171418 | 71 | 193 | 5.0 | 9.0 | 0.00 | 0.02 | 0.00 | 70 | 1010.3 |
| 20260830170910 | 71 | 211 | 5.0 | 10.0 | 0.00 | 0.02 | 0.00 | 70 | 1010.4 |
| 20260830170351 | 71 | 194 | 5.0 | 10.0 | 0.00 | 0.02 | 0.00 | 69 | 1010.4 |
| 20260830165845 | 71 | 219 | 3.0 | 7.0 | 0.00 | 0.02 | 0.00 | 69 | 1010.4 |
| 20260830165841 | 71 | 191 | 4.0 | 7.0 | 0.00 | 0.02 | 0.00 | 69 | 1010.4 |
| 20260830164826 | 71 | 257 | 3.0 | 6.0 | 0.00 | 0.02 | 0.00 | 70 | 1010.3 |
| 20260830164324 | 72 | 166 | 3.0 | 7.0 | 0.00 | 0.02 | 0.00 | 69 | 1010.4 |
| 20260830163920 | 72 | 185 | 4.0 | 9.0 | 0.00 | 0.04 | 0.00 | 69 | 1010.3 |
| 20260830163412 | 72 | 197 | 4.0 | 9.0 | 0.00 | 0.06 | 0.00 | 68 | 1010.3 |
| 20260830162901 | 72 | 195 | 4.0 | 8.0 | 0.00 | 0.06 | 0.00 | 68 | 1010.4 |
| 20260830162351 | 72 | 232 | 5.0 | 9.0 | 0.00 | 0.06 | 0.00 | 67 | 1010.5 |
| 20260830161833 | 72 | 199 | 4.0 | 9.0 | 0.00 | 0.07 | 0.00 | 67 | 1010.5 |
| 20260830161328 | 72 | 212 | 4.0 | 11.0 | 0.00 | 0.07 | 0.00 | 66 | 1010.5 |
| 20260830160824 | 73 | 187 | 5.0 | 13.0 | 0.00 | 0.08 | 0.00 | 66 | 1010.5 |
| 20260830160418 | 73 | 207 | 6.0 | 13.0 | 0.00 | 0.09 | 0.00 | 64 | 1010.5 |
| 20260830155908 | 73 | 208 | 5.0 | 12.0 | 0.00 | 0.09 | 0.00 | 64 | 1010.6 |
| 20260830155400 | 73 | 226 | 5.0 | 13.0 | 0.00 | 0.09 | 0.00 | 66 | 1010.6 |
| 20260830154852 | 73 | 174 | 7.0 | 13.0 | 0.00 | 0.10 | 0.00 | 65 | 1010.5 |
| 20260830154345 | 73 | 166 | 6.0 | 12.0 | 0.00 | 0.10 | 0.00 | 65 | 1010.7 |
| 20260830153835 | 73 | 233 | 5.0 | 13.0 | 0.00 | 0.10 | 0.00 | 65 | 1010.7 |
| 20260830153322 | 73 | 188 | 6.0 | 13.0 | 0.00 | 0.10 | 0.00 | 66 | 1010.6 |
| 20260830152917 | 73 | 195 | 5.0 | 12.0 | 0.00 | 0.10 | 0.00 | 66 | 1010.6 |
| 20260830152407 | 73 | 207 | 5.0 | 14.0 | 0.00 | 0.10 | 0.00 | 67 | 1010.6 |
| 20260830151858 | 73 | 215 | 5.0 | 14.0 | 0.00 | 0.10 | 0.00 | 68 | 1010.6 |
| 20260830151350 | 72 | 193 | 5.0 | 12.0 | 0.00 | 0.10 | 0.00 | 69 | 1010.7 |
| 20260830150842 | 73 | 192 | 6.0 | 12.0 | 0.00 | 0.10 | 0.00 | 67 | 1010.7 |
| 20260830150334 | 73 | 192 | 6.0 | 12.0 | 0.00 | 0.10 | 0.00 | 67 | 1010.7 |
| 20260830145828 | 73 | 164 | 6.0 | 12.0 | 0.00 | 0.10 | 0.00 | 67 | 1010.7 |
| 20260830145320 | 73 | 222 | 5.0 | 12.0 | 0.00 | 0.10 | 0.00 | 67 | 1010.7 |
| 20260830144910 | 73 | 199 | 6.0 | 13.0 | 0.00 | 0.10 | 0.00 | 66 | 1010.8 |
| 20260830144359 | 73 | 206 | 6.0 | 13.0 | 0.00 | 0.10 | 0.00 | 66 | 1010.9 |
| 20260830144249 | 72 | 187 | 6.0 | 15.0 | 0.00 | 0.10 | 0.00 | 67 | 1010.9 |
| 20260830143342 | 72 | 192 | 6.0 | 15.0 | 0.00 | 0.10 | 0.00 | 67 | 1010.9 |
| 20260830143233 | 72 | 215 | 5.0 | 11.0 | 0.00 | 0.10 | 0.00 | 67 | 1010.9 |
| 20260830142328 | 72 | 200 | 6.0 | 16.0 | 0.00 | 0.10 | 0.00 | 68 | 1010.9 |
| 20260830141819 | 72 | 176 | 7.0 | 16.0 | 0.00 | 0.10 | 0.00 | 67 | 1010.9 |
| 20260830141712 | 72 | 198 | 7.0 | 14.0 | 0.00 | 0.10 | 0.00 | 67 | 1010.9 |
| 20260830140906 | 72 | 121 | 5.0 | 13.0 | 0.00 | 0.10 | 0.00 | 68 | 1010.9 |
| 20260830140356 | 72 | 207 | 5.0 | 13.0 | 0.00 | 0.10 | 0.00 | 69 | 1010.9 |
| 20260830135849 | 72 | 250 | 6.0 | 13.0 | 0.00 | 0.10 | 0.00 | 68 | 1011.0 |
| 20260830135338 | 72 | 201 | 5.0 | 10.0 | 0.00 | 0.10 | 0.00 | 69 | 1011.0 |
| 20260830135226 | 72 | 202 | 6.0 | 12.0 | 0.00 | 0.10 | 0.00 | 69 | 1011.0 |
| 20260830134321 | 72 | 197 | 6.0 | 12.0 | 0.00 | 0.10 | 0.00 | 68 | 1011.0 |
| 20260830133811 | 72 | 173 | 5.0 | 11.0 | 0.00 | 0.10 | 0.00 | 69 | 1011.0 |
| 20260830133308 | 72 | 157 | 5.0 | 10.0 | 0.00 | 0.10 | 0.00 | 70 | 1011.1 |
| 20260830132759 | 72 | 190 | 6.0 | 14.0 | 0.00 | 0.11 | 0.00 | 69 | 1011.0 |
| 20260830132350 | 72 | 194 | 7.0 | 14.0 | 0.00 | 0.11 | 0.00 | 69 | 1011.0 |
| 20260830131841 | 72 | 53 | 6.0 | 13.0 | 0.00 | 0.11 | 0.00 | 68 | 1011.0 |
| 20260830131333 | 72 | 262 | 6.0 | 13.0 | 0.00 | 0.11 | 0.00 | 70 | 1011.0 |
| 20260830130824 | 72 | 218 | 5.0 | 13.0 | 0.00 | 0.11 | 0.00 | 70 | 1011.0 |
| 20260830130315 | 72 | 203 | 5.0 | 13.0 | 0.00 | 0.11 | 0.00 | 70 | 1011.1 |
| 20260830125808 | 72 | 222 | 5.0 | 10.0 | 0.00 | 0.11 | 0.00 | 71 | 1011.1 |
| 20260830125301 | 71 | 173 | 5.0 | 12.0 | 0.00 | 0.11 | 0.00 | 71 | 1011.1 |
| 20260830124753 | 71 | 195 | 5.0 | 12.0 | 0.00 | 0.11 | 0.00 | 71 | 1011.1 |
| 20260830124348 | 71 | 194 | 5.0 | 11.0 | 0.00 | 0.11 | 0.00 | 72 | 1011.1 |
| 20260830123837 | 71 | 218 | 5.0 | 10.0 | 0.00 | 0.11 | 0.00 | 71 | 1011.1 |
| 20260830123328 | 70 | 262 | 5.0 | 15.0 | 0.00 | 0.11 | 0.00 | 73 | 1011.1 |
| 20260830122817 | 70 | 200 | 5.0 | 15.0 | 0.00 | 0.11 | 0.00 | 72 | 1011.1 |
| 20260830122307 | 70 | 202 | 5.0 | 12.0 | 0.00 | 0.11 | 0.00 | 74 | 1011.1 |
| 20260830121757 | 70 | 175 | 6.0 | 12.0 | 0.00 | 0.11 | 0.00 | 73 | 1011.0 |
| 20260830121248 | 69 | 210 | 5.0 | 12.0 | 0.00 | 0.11 | 0.00 | 74 | 1011.0 |
| 20260830120838 | 69 | 220 | 5.0 | 12.0 | 0.00 | 0.11 | 0.00 | 74 | 1011.0 |
| 20260830120731 | 69 | 225 | 6.0 | 12.0 | 0.00 | 0.11 | 0.00 | 74 | 1010.9 |
| 20260830115824 | 69 | 184 | 7.0 | 15.0 | 0.00 | 0.11 | 0.00 | 75 | 1010.8 |
| 20260830115315 | 69 | 174 | 7.0 | 15.0 | 0.00 | 0.11 | 0.00 | 74 | 1010.9 |
| 20260830114805 | 69 | 179 | 6.0 | 13.0 | 0.00 | 0.11 | 0.00 | 75 | 1010.8 |
| 20260830114257 | 69 | 187 | 5.0 | 12.0 | 0.00 | 0.11 | 0.00 | 75 | 1010.7 |
| 20260830113744 | 69 | 179 | 4.0 | 12.0 | 0.00 | 0.11 | 0.00 | 76 | 1010.8 |
| 20260830113238 | 69 | 216 | 5.0 | 11.0 | 0.00 | 0.11 | 0.00 | 76 | 1010.8 |
| 20260830112828 | 69 | 220 | 7.0 | 13.0 | 0.00 | 0.11 | 0.00 | 76 | 1010.8 |
| 20260830112320 | 69 | 208 | 6.0 | 13.0 | 0.00 | 0.11 | 0.00 | 76 | 1010.8 |
| 20260830111812 | 69 | 186 | 5.0 | 12.0 | 0.00 | 0.11 | 0.00 | 77 | 1010.9 |
| 20260830111302 | 69 | 166 | 5.0 | 12.0 | 0.00 | 0.11 | 0.00 | 77 | 1010.8 |
| 20260830110809 | 69 | 256 | 4.0 | 10.0 | 0.00 | 0.11 | 0.00 | 77 | 1010.8 |
| 20260830110246 | 69 | 235 | 4.0 | 11.0 | 0.00 | 0.11 | 0.00 | 78 | 1010.8 |
| 20260830105736 | 68 | 229 | 4.0 | 11.0 | 0.00 | 0.11 | 0.00 | 78 | 1010.7 |
| 20260830105228 | 68 | 276 | 4.0 | 9.0 | 0.00 | 0.11 | 0.00 | 79 | 1010.7 |
| 20260830105216 | 68 | 294 | 4.0 | 9.0 | 0.00 | 0.11 | 0.00 | 79 | 1010.7 |
| 20260830104308 | 67 | 241 | 4.0 | 13.0 | 0.00 | 0.11 | 0.00 | 80 | 1010.8 |
| 20260830103758 | 67 | 183 | 4.0 | 13.0 | 0.00 | 0.11 | 0.00 | 79 | 1010.9 |
| 20260830103251 | 67 | 226 | 4.0 | 12.0 | 0.00 | 0.11 | 0.00 | 80 | 1010.7 |
| 20260830102743 | 67 | 264 | 5.0 | 12.0 | 0.00 | 0.11 | 0.00 | 80 | 1010.8 |
| 20260830102236 | 67 | 229 | 4.0 | 10.0 | 0.00 | 0.11 | 0.00 | 81 | 1010.8 |
| 20260830101730 | 67 | 187 | 4.0 | 11.0 | 0.00 | 0.11 | 0.00 | 80 | 1010.8 |
| 20260830101320 | 67 | 170 | 5.0 | 17.0 | 0.00 | 0.11 | 0.00 | 80 | 1010.7 |
| 20260830101210 | 67 | 249 | 7.0 | 17.0 | 0.00 | 0.11 | 0.00 | 80 | 1010.7 |
| 20260830100305 | 67 | 226 | 7.0 | 15.0 | 0.00 | 0.11 | 0.00 | 80 | 1010.6 |
| 20260830095758 | 67 | 208 | 8.0 | 15.0 | 0.00 | 0.11 | 0.00 | 80 | 1010.6 |
| 20260830095251 | 67 | 241 | 6.0 | 15.0 | 0.00 | 0.11 | 0.00 | 79 | 1010.6 |
| 20260830094745 | 67 | 157 | 6.0 | 14.0 | 0.00 | 0.11 | 0.00 | 80 | 1010.5 |
| 20260830094234 | 67 | 285 | 7.0 | 19.0 | 0.00 | 0.11 | 0.00 | 79 | 1010.5 |
| 20260830093730 | 67 | 192 | 8.0 | 19.0 | 0.00 | 0.11 | 0.00 | 79 | 1010.4 |
| 20260830093221 | 67 | 201 | 8.0 | 20.0 | 0.00 | 0.11 | 0.00 | 79 | 1010.4 |
| 20260830092713 | 67 | 211 | 8.0 | 20.0 | 0.00 | 0.11 | 0.00 | 80 | 1010.3 |
| 20260830092307 | 67 | 179 | 8.0 | 17.0 | 0.00 | 0.11 | 0.00 | 80 | 1010.3 |
| 20260830091801 | 66 | 161 | 7.0 | 18.0 | 0.00 | 0.11 | 0.00 | 81 | 1010.3 |
| 20260830091252 | 66 | 167 | 7.0 | 18.0 | 0.00 | 0.11 | 0.00 | 81 | 1010.2 |
| 20260830090743 | 66 | 202 | 6.0 | 17.0 | 0.00 | 0.11 | 0.00 | 81 | 1010.2 |
| 20260830090234 | 66 | 241 | 6.0 | 17.0 | 0.00 | 0.11 | 0.00 | 81 | 1010.1 |
| 20260830085724 | 66 | 236 | 6.0 | 14.0 | 0.00 | 0.11 | 0.00 | 81 | 1010.1 |
| 20260830085215 | 66 | 235 | 7.0 | 14.0 | 0.00 | 0.11 | 0.00 | 82 | 1010.1 |
| 20260830084708 | 66 | 200 | 6.0 | 13.0 | 0.00 | 0.11 | 0.00 | 82 | 1009.9 |
| 20260830084256 | 66 | 148 | 6.0 | 10.0 | 0.00 | 0.11 | 0.00 | 82 | 1009.9 |
| 20260830083747 | 65 | 235 | 7.0 | 18.0 | 0.00 | 0.11 | 0.00 | 82 | 1009.9 |
| 20260830083240 | 65 | 230 | 8.0 | 18.0 | 0.00 | 0.11 | 0.00 | 83 | 1009.9 |
| 20260830082731 | 65 | 201 | 6.0 | 14.0 | 0.00 | 0.11 | 0.00 | 83 | 1009.9 |
| 20260830082619 | 65 | 205 | 6.0 | 13.0 | 0.00 | 0.11 | 0.00 | 83 | 1009.8 |
| 20260830082614 | 65 | 177 | 6.0 | 14.0 | 0.00 | 0.11 | 0.00 | 83 | 1009.9 |
| 20260830081205 | 65 | 199 | 6.0 | 15.0 | 0.00 | 0.11 | 0.00 | 84 | 1009.8 |
| 20260830080656 | 65 | 201 | 7.0 | 15.0 | 0.00 | 0.11 | 0.00 | 84 | 1009.8 |
| 20260830080246 | 65 | 180 | 7.0 | 14.0 | 0.00 | 0.11 | 0.00 | 84 | 1009.7 |
| 20260830075736 | 64 | 204 | 7.0 | 15.0 | 0.00 | 0.11 | 0.00 | 84 | 1009.6 |
| 20260830075226 | 64 | 190 | 7.0 | 15.0 | 0.00 | 0.11 | 0.00 | 85 | 1009.6 |
| 20260830074721 | 64 | 194 | 6.0 | 13.0 | 0.00 | 0.11 | 0.00 | 85 | 1009.5 |
| 20260830074213 | 64 | 194 | 6.0 | 13.0 | 0.00 | 0.11 | 0.00 | 85 | 1009.4 |
| 20260830073706 | 64 | 231 | 6.0 | 15.0 | 0.00 | 0.11 | 0.00 | 85 | 1009.4 |
| 20260830073200 | 64 | 193 | 7.0 | 15.0 | 0.00 | 0.11 | 0.00 | 85 | 1009.3 |
| 20260830072650 | 64 | 240 | 6.0 | 13.0 | 0.00 | 0.11 | 0.00 | 85 | 1009.3 |
| 20260830072146 | 64 | 230 | 6.0 | 13.0 | 0.00 | 0.11 | 0.00 | 86 | 1009.2 |
| 20260830071732 | 63 | 233 | 6.0 | 13.0 | 0.00 | 0.11 | 0.00 | 86 | 1009.1 |
| 20260830071223 | 63 | 200 | 6.0 | 13.0 | 0.00 | 0.11 | 0.00 | 86 | 1009.0 |
| 20260830070714 | 63 | 223 | 6.0 | 14.0 | 0.00 | 0.11 | 0.00 | 86 | 1009.0 |
| 20260830070207 | 63 | 190 | 7.0 | 14.0 | 0.00 | 0.11 | 0.00 | 86 | 1009.0 |
| 20260830065658 | 63 | 214 | 6.0 | 14.0 | 0.00 | 0.11 | 0.00 | 86 | 1009.0 |
| 20260830065150 | 63 | 216 | 7.0 | 16.0 | 0.00 | 0.11 | 0.00 | 86 | 1008.9 |
| 20260830064740 | 63 | 186 | 7.0 | 16.0 | 0.00 | 0.11 | 0.00 | 86 | 1008.9 |
| 20260830064231 | 63 | 168 | 7.0 | 16.0 | 0.00 | 0.11 | 0.00 | 86 | 1008.9 |
| 20260830063723 | 63 | 172 | 7.0 | 20.0 | 0.00 | 0.11 | 0.00 | 85 | 1008.8 |
| 20260830063228 | 63 | 245 | 7.0 | 20.0 | 0.00 | 0.11 | 0.00 | 85 | 1008.6 |
| 20260830062709 | 63 | 250 | 7.0 | 16.0 | 0.00 | 0.11 | 0.00 | 85 | 1008.7 |
| 20260830062201 | 63 | 203 | 6.0 | 14.0 | 0.00 | 0.11 | 0.00 | 85 | 1008.6 |
| 20260830061656 | 63 | 149 | 6.0 | 17.0 | 0.00 | 0.11 | 0.00 | 85 | 1008.5 |
| 20260830061148 | 63 | 159 | 6.0 | 17.0 | 0.00 | 0.11 | 0.00 | 85 | 1008.5 |
| 20260830060738 | 63 | 253 | 5.0 | 11.0 | 0.00 | 0.11 | 0.00 | 85 | 1008.5 |
| 20260830060230 | 63 | 158 | 5.0 | 11.0 | 0.00 | 0.11 | 0.00 | 85 | 1008.4 |
| 20260830055720 | 63 | 252 | 6.0 | 12.0 | 0.00 | 0.11 | 0.00 | 85 | 1008.3 |
| 20260830055211 | 63 | 168 | 6.0 | 14.0 | 0.00 | 0.11 | 0.00 | 85 | 1008.3 |
| 20260830054703 | 63 | 231 | 6.0 | 14.0 | 0.00 | 0.11 | 0.00 | 84 | 1008.2 |
| 20260830054152 | 63 | 288 | 6.0 | 14.0 | 0.00 | 0.11 | 0.00 | 84 | 1008.2 |
| 20260830053641 | 63 | 204 | 6.0 | 14.0 | 0.00 | 0.11 | 0.00 | 84 | 1008.2 |
| 20260830053231 | 63 | 210 | 6.0 | 15.0 | 0.00 | 0.11 | 0.00 | 84 | 1008.0 |
| 20260830052724 | 63 | 177 | 7.0 | 15.0 | 0.00 | 0.11 | 0.00 | 84 | 1008.0 |
| 20260830052219 | 63 | 187 | 7.0 | 15.0 | 0.00 | 0.11 | 0.00 | 84 | 1008.0 |
| 20260830051709 | 63 | 220 | 7.0 | 15.0 | 0.00 | 0.11 | 0.00 | 84 | 1007.9 |
| 20260830051202 | 63 | 194 | 7.0 | 15.0 | 0.00 | 0.11 | 0.00 | 84 | 1007.8 |
| 20260830050652 | 63 | 169 | 7.0 | 15.0 | 0.00 | 0.11 | 0.00 | 84 | 1007.8 |
| 20260830050156 | 63 | 149 | 7.0 | 15.0 | 0.00 | 0.11 | 0.00 | 84 | 1007.8 |
| 20260830045637 | 63 | 175 | 6.0 | 16.0 | 0.00 | 0.11 | 0.00 | 84 | 1007.7 |
| 20260830045324 | 63 | 160 | 6.0 | 16.0 | 0.00 | 0.11 | 0.00 | 85 | 1007.6 |
| 20260830044719 | 63 | 203 | 7.0 | 15.0 | 0.00 | 0.11 | 0.00 | 85 | 1007.6 |
| 20260830044307 | 63 | 211 | 7.0 | 15.0 | 0.00 | 0.11 | 0.00 | 85 | 1007.5 |
| 20260830043802 | 63 | 226 | 7.0 | 13.0 | 0.00 | 0.11 | 0.00 | 85 | 1007.6 |
| 20260830043255 | 63 | 166 | 7.0 | 14.0 | 0.00 | 0.11 | 0.00 | 85 | 1007.6 |
| 20260830042747 | 63 | 253 | 7.0 | 14.0 | 0.00 | 0.11 | 0.00 | 85 | 1007.6 |
| 20260830042240 | 63 | 205 | 8.0 | 19.0 | 0.00 | 0.11 | 0.00 | 85 | 1007.5 |
| 20260830041732 | 63 | 222 | 8.0 | 19.0 | 0.00 | 0.11 | 0.00 | 85 | 1007.5 |
| 20260830041317 | 63 | 197 | 7.0 | 15.0 | 0.00 | 0.11 | 0.00 | 85 | 1007.5 |
| 20260830040812 | 63 | 206 | 6.0 | 15.0 | 0.00 | 0.11 | 0.00 | 85 | 1007.5 |
| 20260830040303 | 63 | 203 | 6.0 | 16.0 | 0.00 | 0.11 | 0.00 | 85 | 1007.4 |
| 20260830035802 | 63 | 237 | 7.0 | 16.0 | 0.00 | 0.11 | 0.00 | 85 | 1007.5 |
| 20260830035601 | 63 | 189 | 7.0 | 14.0 | 0.00 | 0.11 | 0.00 | 85 | 1007.5 |
| 20260830034741 | 63 | 193 | 7.0 | 15.0 | 0.00 | 0.11 | 0.00 | 85 | 1007.5 |
| 20260830034232 | 63 | 211 | 6.0 | 15.0 | 0.00 | 0.11 | 0.00 | 85 | 1007.4 |
| 20260830033725 | 63 | 193 | 7.0 | 18.0 | 0.00 | 0.11 | 0.00 | 84 | 1007.4 |
| 20260830033309 | 63 | 202 | 7.0 | 18.0 | 0.00 | 0.11 | 0.00 | 84 | 1007.5 |
| 20260830032800 | 63 | 208 | 7.0 | 14.0 | 0.00 | 0.11 | 0.00 | 84 | 1007.3 |
| 20260830032256 | 63 | 183 | 7.0 | 14.0 | 0.00 | 0.11 | 0.00 | 84 | 1007.4 |
| 20260830031744 | 63 | 205 | 7.0 | 17.0 | 0.00 | 0.11 | 0.00 | 84 | 1007.4 |
| 20260830031238 | 64 | 191 | 8.0 | 19.0 | 0.00 | 0.11 | 0.00 | 84 | 1007.4 |
| 20260830030727 | 64 | 209 | 9.0 | 19.0 | 0.00 | 0.11 | 0.00 | 83 | 1007.4 |
| 20260830030314 | 64 | 183 | 9.0 | 19.0 | 0.00 | 0.11 | 0.00 | 84 | 1007.4 |
| 20260830025814 | 64 | 184 | 7.0 | 18.0 | 0.00 | 0.11 | 0.00 | 84 | 1007.3 |
| 20260830025808 | 64 | 254 | 8.0 | 19.0 | 0.00 | 0.11 | 0.00 | 84 | 1007.4 |
| 20260830024752 | 64 | 194 | 8.0 | 16.0 | 0.00 | 0.11 | 0.00 | 84 | 1007.3 |
| 20260830024243 | 63 | 214 | 8.0 | 16.0 | 0.00 | 0.11 | 0.00 | 84 | 1007.2 |
| 20260830023735 | 64 | 249 | 8.0 | 17.0 | 0.00 | 0.11 | 0.00 | 84 | 1007.3 |
| 20260830023226 | 63 | 251 | 8.0 | 17.0 | 0.00 | 0.11 | 0.00 | 85 | 1007.2 |
| 20260830022717 | 63 | 191 | 7.0 | 15.0 | 0.00 | 0.11 | 0.00 | 85 | 1007.2 |
| 20260830022519 | 63 | 228 | 7.0 | 16.0 | 0.00 | 0.11 | 0.00 | 85 | 1007.2 |
| 20260830021755 | 63 | 255 | 7.0 | 16.0 | 0.00 | 0.11 | 0.00 | 85 | 1007.1 |
| 20260830021247 | 63 | 224 | 8.0 | 17.0 | 0.00 | 0.11 | 0.00 | 85 | 1007.2 |
| 20260830020739 | 63 | 191 | 8.0 | 17.0 | 0.00 | 0.11 | 0.00 | 85 | 1007.1 |
| 20260830020233 | 63 | 201 | 7.0 | 17.0 | 0.00 | 0.11 | 0.00 | 85 | 1007.0 |